Goshen, IN

4:42 PM EDT on April 25, 2017 (GMT -0400)
Goshen Municipal

Weather History for KGSH - August, 2013

Change the Weather History Date:

Thursday, August 29, 2013

  Actual Average Record
Temperature  
Mean Temperature 76 °F -  
Max Temperature 89 °F 81 °F 98 °F (1953)
Min Temperature 64 °F 59 °F 37 °F (1965)
Cooling Degree Days 11    
Growing Degree Days 26 (Base 50)    
Moisture  
Dew Point 66 °F    
Average Humidity 84    
Maximum Humidity 100    
Minimum Humidity 46    
Precipitation  
Precipitation 0.01 in - - ()
Sea Level Pressure  
Sea Level Pressure 30.04 in    
Wind  
Wind Speed 1 mph (NE)    
Max Wind Speed 6 mph    
Max Gust Speed -    
Visibility 4 miles    
Events Fog    
Averages and records for this station are not official NWS values.
T = Trace of Precipitation, MM = Missing Value Source: NWS Daily Summary

Daily Weather History Graph

Daily Weather History Graph

Search for Another Location

Airport or City:

Trip Planner

Search our weather history database for the weather conditions in past years. The results will help you decide how hot, cold, wet, or windy it might be!

Date:

Astronomy

Aug. 29, 2013 Rise Set
Actual Time 7:06 AM EDT 8:20 PM EDT
Civil Twilight 6:37 AM EDT 8:49 PM EDT
Nautical Twilight 6:03 AM EDT 9:23 PM EDT
Astronomical Twilight 5:27 AM EDT 9:59 PM EDT
Moon 12:55 AM EDT (8/29) 3:51 PM EDT (8/29)
Length of Visible Light 14h 11m
Length of Day
13h 14m
Last Quarter, 38% of the Moon is Illuminated
Aug 29
Last Quarter
Sep 5
New
Sep 12
First Quarter
Sep 19
Full
Sep 26
Last Quarter

Hourly Weather History & Observations

Time (EDT) Temp. Heat Index Dew Point Humidity Pressure Visibility Wind Dir Wind Speed Gust Speed Precip Events Conditions
12:44 AM 68.0 °F - 66.2 °F 94% 30.03 in 1.8 mi Calm Calm - N/A   Clear
12:49 AM 69.8 °F - 66.2 °F 88% 30.03 in 0.5 mi Calm Calm - N/A Fog Fog
12:53 AM 69.1 °F - 66.9 °F 93% 30.02 in 0.2 mi Calm Calm - N/A Fog Fog
1:10 AM 66.2 °F - 66.2 °F 100% 30.03 in 0.5 mi Calm Calm - N/A Fog Fog
1:22 AM 66.2 °F - 64.4 °F 94% 30.04 in 1.0 mi Calm Calm - N/A   Mist
1:24 AM 66.2 °F - 64.4 °F 94% 30.04 in 2.0 mi Calm Calm - N/A   Clear
1:26 AM 66.2 °F - 64.4 °F 94% 30.04 in 1.0 mi Calm Calm - N/A   Mist
1:29 AM 66.2 °F - 66.2 °F 100% 30.04 in 0.5 mi Calm Calm - N/A Fog Fog
1:53 AM 66.9 °F - 64.9 °F 93% 30.03 in 0.2 mi Calm Calm - N/A Fog Fog
2:53 AM 66.9 °F - 64.9 °F 93% 30.02 in 0.2 mi Calm Calm - N/A Fog Fog
3:03 AM 66.2 °F - 64.4 °F 94% 30.04 in 0.2 mi North 3.5 mph - N/A Fog Fog
3:15 AM 66.2 °F - 64.4 °F 94% 30.04 in 1.0 mi North 4.6 mph - N/A   Clear
3:23 AM 64.4 °F - 64.4 °F 100% 30.04 in 2.0 mi North 4.6 mph - N/A   Clear
3:35 AM 66.2 °F - 64.4 °F 94% 30.04 in 4.0 mi North 3.5 mph - N/A   Clear
3:43 AM 66.2 °F - 64.4 °F 94% 30.04 in 1.8 mi NNE 3.5 mph - N/A   Clear
3:53 AM 66.0 °F - 64.9 °F 96% 30.02 in 1.2 mi NNE 4.6 mph - N/A   Clear
4:00 AM 66.2 °F - 64.4 °F 94% 30.04 in 0.5 mi NNE 4.6 mph - N/A Fog Fog
4:08 AM 66.2 °F - 64.4 °F 94% 30.04 in 0.2 mi NNE 3.5 mph - N/A Fog Fog
4:53 AM 66.0 °F - 64.9 °F 96% 30.02 in 0.2 mi Calm Calm - N/A Fog Fog
5:53 AM 64.9 °F - 64.0 °F 97% 30.03 in 0.2 mi Calm Calm - N/A Fog Fog
6:53 AM 64.9 °F - 64.0 °F 97% 30.05 in 0.2 mi Calm Calm - N/A Fog Fog
7:53 AM 66.0 °F - 64.9 °F 96% 30.07 in 0.2 mi Calm Calm - 0.01 in Fog Fog
8:05 AM 66.2 °F - 66.2 °F 100% 30.08 in 1.0 mi Calm Calm - N/A   Mist
8:12 AM 66.2 °F - 66.2 °F 100% 30.08 in 2.0 mi Calm Calm - N/A   Scattered Clouds
8:26 AM 68.0 °F - 66.2 °F 94% 30.08 in 3.0 mi Calm Calm - N/A   Partly Cloudy
8:53 AM 69.1 °F - 68.0 °F 96% 30.07 in 5.0 mi Calm Calm - N/A   Clear
9:53 AM 75.9 °F - 69.1 °F 79% 30.07 in 9.0 mi East 4.6 mph - N/A   Partly Cloudy
10:53 AM 79.0 °F - 69.1 °F 72% 30.07 in 10.0 mi Calm Calm - N/A   Clear
11:53 AM 82.9 °F 85.0 °F 66.0 °F 56% 30.07 in 10.0 mi Variable 3.5 mph - N/A   Scattered Clouds
12:53 PM 84.0 °F 86.3 °F 66.0 °F 55% 30.07 in 10.0 mi ENE 5.8 mph - N/A   Clear
1:53 PM 84.9 °F 87.1 °F 66.0 °F 53% 30.06 in 10.0 mi ESE 3.5 mph - N/A   Partly Cloudy
2:53 PM 84.9 °F 87.6 °F 66.9 °F 55% 30.04 in 10.0 mi NE 3.5 mph - N/A   Mostly Cloudy
3:53 PM 88.0 °F 89.6 °F 64.9 °F 46% 30.03 in 10.0 mi Calm Calm - N/A   Scattered Clouds
4:53 PM 87.1 °F 89.2 °F 66.0 °F 49% 30.01 in 10.0 mi East 4.6 mph - N/A   Partly Cloudy
5:53 PM 84.0 °F 87.0 °F 68.0 °F 58% 30.01 in 10.0 mi Calm Calm - N/A   Clear
6:53 PM 86.0 °F 87.3 °F 64.0 °F 48% 30.01 in 10.0 mi Calm Calm - N/A   Clear
7:53 PM 84.0 °F 86.5 °F 66.9 °F 56% 30.01 in 10.0 mi Calm Calm - N/A   Partly Cloudy
8:53 PM 75.0 °F - 68.0 °F 79% 30.02 in 9.0 mi Calm Calm - N/A   Clear
9:53 PM 73.9 °F - 68.0 °F 82% 30.02 in 10.0 mi Calm Calm - N/A   Mostly Cloudy
10:53 PM 73.0 °F - 68.0 °F 84% 30.01 in 10.0 mi Calm Calm - N/A   Partly Cloudy
11:53 PM 70.0 °F - 66.9 °F 90% 29.99 in 9.0 mi Calm Calm - N/A   Clear